Effective Sunday, March 17, 2024, the National Weather Service National Data Buoy Center will discontinue its Dial-A-Buoy Interactive Voice Response system. For more information, see Service Change Notice 24-06 (PDF).

Station DOMV2 - 8638511 - Dominion Terminal Associates, VA Image indicating link to RSS feed of recent meteorological observations for station DOMV2


Conditions at DOMV2 as of
(11:00 pm EST on 02/24/2024)
0400 GMT on 02/25/2024:
     

Click on the graph icon in the table below to see a time series plot of the last five days of that observation.

5-day plot - Wind Direction Wind Direction (WDIR): NE ( 40 deg true )
5-day plot - Wind Speed Wind Speed (WSPD): 5.1 kts
5-day plot - Wind Gust Wind Gust (GST): 9.9 kts
5-day plot - Atmospheric Pressure Atmospheric Pressure (PRES):29.98 in
5-day plot - Pressure Tendency Pressure Tendency (PTDY):+0.09 in ( Rising )
5-day plot - Air Temperature Air Temperature (ATMP): 43.5 °F
5-day plot - Wind Chill Wind Chill (CHILL): 40.1 °F
5-day plot - Wind Speed at 10 Meters Wind Speed at 10 meters (WSPD10M): 5.8 kts
5-day plot - Wind Speed at 20 Meters Wind Speed at 20 meters (WSPD20M): 5.8 kts
5-day plot -  Wind Speed, Wind Gust and Atmospheric Pressure Combined plot of Wind Speed, Gust, and Air Pressure
NOS Water Level Observation Network Water Level
Previous observations
TIME
(EST)
5-day plot - Wind Direction
WDIR
 
5-day plot - Wind Speed
WSPD
kts
5-day plot - Wind Gust
GST
kts
5-day plot - Wave Height
WVHT
ft
5-day plot - Dominant Wave Period
DPD
sec
5-day plot - Average Wave Period
APD
sec
5-day plot - Mean Wave Direction
MWD
 
5-day plot - Atmospheric Pressure
PRES
in
5-day plot - Pressure Tendency
PTDY
in
5-day plot - Air Temperature
ATMP
°F
5-day plot - Water Temperature
WTMP
°F
5-day plot - Dew Point
DEWP
°F
5-day plot - Salinity
SAL
psu
5-day plot - Visibility
VIS
nmi
5-day plot - Tide (above MLLW)
TIDE
ft
2024-02-24 10:54 pm NE 7.0 9.9----29.98- 43.9-----
2024-02-24 10:48 pm NE 2.9 8.0----29.97- 44.2-----
2024-02-24 10:42 pm NE 5.1 9.9----29.97- 44.2-----
2024-02-24 10:36 pmENE 2.9 8.0----29.97- 44.2-----
2024-02-24 10:30 pm NE 2.9 8.9----29.97- 44.2-----
2024-02-24 10:24 pm NE 4.1 7.0----29.97- 44.4-----
2024-02-24 10:18 pmENE 2.9 8.9------ 44.8-----
2024-02-24 10:12 pm NE 2.9 6.0------ 45.0-----
2024-02-24 10:06 pm NE 1.9 4.1------ 45.3-----
2024-02-24 10:00 pm NE 1.9 4.1----29.95+0.09 45.3-----
2024-02-24 09:54 pm NE 1.9 5.1----29.95- 45.5-----
2024-02-24 09:48 pm NE 2.9 4.1----29.94- 45.7-----
2024-02-24 09:42 pm NE 1.9 5.1----29.94- 45.9-----
2024-02-24 09:36 pm NE 1.9 2.9----29.94- 46.0-----
2024-02-24 09:30 pm NE 1.9 4.1----29.93- 45.9-----
2024-02-24 09:24 pm NE 1.9 4.1----29.93- 45.9-----
2024-02-24 09:18 pm NE 1.9 4.1----29.93-------
2024-02-24 09:12 pm NE 1.0 4.1----29.93-------
2024-02-24 09:06 pm NE 1.9 4.1----29.93-------
2024-02-24 09:00 pm-------29.92+0.09------
2024-02-24 08:54 pm-------29.92-------
2024-02-24 08:48 pm NE 1.9 2.9----29.92-------
2024-02-24 08:42 pm NE 1.0 4.1----29.91-------
2024-02-24 08:36 pm NE 1.0 4.1----29.91-------
2024-02-24 08:30 pm NE 2.9 4.1----29.91- 45.3-----
2024-02-24 08:24 pm NE 2.9 2.9----29.90- 45.5-----
2024-02-24 08:18 pmNNE 1.9 1.9----29.90- 45.7-----
2024-02-24 08:12 pm N 1.0 5.1----29.90- 45.7-----
2024-02-24 08:06 pm NW 1.0 2.9----29.90- 45.5-----
2024-02-24 08:00 pm N 1.0 5.1----29.89+0.10------
2024-02-24 07:54 pm- 0.0 1.0----29.89-------
2024-02-24 07:48 pm- 0.0 2.9----29.89-------
2024-02-24 07:42 pm E 1.0 1.9----29.88-------
2024-02-24 07:36 pm- 0.0 1.9----29.88-------
2024-02-24 07:30 pm- 0.0 2.9----29.88-------
2024-02-24 07:24 pm- 0.0 1.9----29.88-------
2024-02-24 07:18 pm NE 1.9 4.1----29.87- 45.7-----
2024-02-24 07:12 pm NE 2.9 4.1----29.87- 45.5-----
2024-02-24 07:06 pm NE 2.9 5.1----29.87- 45.5-----
2024-02-24 07:00 pm NE 2.9 5.1----29.86+0.12 45.5-----
2024-02-24 06:54 pmNNE 4.1 6.0----29.86- 45.5-----
2024-02-24 06:48 pmNNE 4.1 5.1----29.86- 45.5-----
2024-02-24 06:42 pmNNE 4.1 6.0----29.85- 45.7-----
2024-02-24 06:36 pmNNE 5.1 6.0----29.85- 45.7-----
2024-02-24 06:30 pm NE 2.9 5.1----29.85-------
2024-02-24 06:24 pmNNE 4.1 5.1----29.85-------
2024-02-24 06:00 pmNNE 2.9 4.1----29.83+0.11 46.4-----
2024-02-24 05:54 pmNNE 1.0 1.9----29.83- 46.6-----
2024-02-24 05:48 pm E 1.0 1.9----29.83- 46.8-----
2024-02-24 05:42 pm- 0.0 1.9----29.82- 46.8-----
2024-02-24 05:36 pm- 0.0 2.9----29.82- 46.8-----
2024-02-24 05:30 pmESE 2.9 5.1----29.81- 46.6-----
2024-02-24 05:24 pmESE 2.9 7.0----29.81- 46.6-----
2024-02-24 05:18 pmESE 2.9 5.1----29.80-------
2024-02-24 05:12 pmESE 1.9 5.1----29.80-------
2024-02-24 05:06 pm E 1.0 5.1----29.80-------
2024-02-24 05:00 pmESE 2.9 7.0----29.79+0.07------
2024-02-24 04:54 pmESE 2.9 7.0----29.79-------
2024-02-24 04:48 pmESE 1.9 6.0----29.78- 46.8-----
2024-02-24 04:42 pmSSE 1.0 4.1----29.78- 46.9-----
2024-02-24 04:36 pm S 1.9 4.1----29.78- 46.9-----
2024-02-24 04:30 pmESE 1.9 8.0----29.77- 46.9-----
2024-02-24 04:24 pmESE 5.1 9.9----29.77- 47.1-----
2024-02-24 04:18 pm SE 1.9 5.1----29.76- 47.8-----
2024-02-24 04:12 pm W 1.9 5.1----29.75- 48.4-----
2024-02-24 04:06 pm N 1.9 6.0----29.75- 49.1-----
2024-02-24 04:00 pm-------29.75+0.03 48.9-----
2024-02-24 03:54 pm-------29.75- 49.1-----
2024-02-24 03:48 pm NW 1.9 5.1----29.75-------
2024-02-24 03:42 pmNNW 1.9 7.0----29.74-------
2024-02-24 03:36 pm SW 2.9 7.0----29.74-------
2024-02-24 03:30 pm S 1.9 8.9------ 48.6-----
2024-02-24 03:24 pmWSW 1.9 7.0------ 48.7-----
2024-02-24 03:18 pm-------29.73- 48.9-----
2024-02-24 03:12 pm-------29.73- 49.1-----
2024-02-24 03:06 pm-------29.73- 48.7-----
2024-02-24 03:00 pm SE 2.9 8.9----29.73+0.01 48.6-----
2024-02-24 02:54 pmESE 6.0 11.1----29.73- 48.2-----
2024-02-24 02:48 pmESE 6.0 11.1----29.73- 48.6-----
2024-02-24 02:42 pm NE 1.9 7.0----29.72- 50.2-----
2024-02-24 02:36 pm N 1.9 5.1----29.72- 50.2-----
2024-02-24 02:30 pmNNE 5.1 9.9----29.73- 49.6-----
2024-02-24 02:24 pm NE 6.0 9.9----29.73- 49.6-----
2024-02-24 02:18 pmNNE 5.1 8.9----29.73- 50.0-----
2024-02-24 02:12 pmNNE 7.0 9.9----29.72- 49.8-----
2024-02-24 02:06 pmNNE 4.1 6.0----29.72- 50.9-----
2024-02-24 02:00 pmNNE 4.1 7.0----29.72+0.00------
2024-02-24 01:54 pmNNW 1.9 6.0----29.72-------
2024-02-24 01:48 pmNNE 2.9 7.0----29.72- 51.1-----
2024-02-24 01:42 pmNNE 5.1 8.0----29.72- 50.9-----
2024-02-24 01:36 pmESE 1.9 9.9----29.72- 50.4-----
2024-02-24 01:30 pmESE 1.9 8.9----29.72- 49.6-----
2024-02-24 01:24 pmESE 6.0 9.9----29.72- 48.7-----
2024-02-24 01:18 pmESE 8.0 11.1----29.72- 47.8-----
2024-02-24 01:12 pmESE 7.0 9.9----29.72- 47.8-----
2024-02-24 01:06 pmESE 7.0 9.9----29.72- 48.2-----
2024-02-24 01:00 pmESE 8.9 13.0----29.72-------
2024-02-24 12:54 pmSSE 5.1 8.0----29.72-------
2024-02-24 12:48 pm S 6.0 7.0----29.72-------
2024-02-24 12:42 pm S 5.1 5.1----29.72-------
2024-02-24 12:36 pmSSW 2.9 2.9----29.72-------
2024-02-24 12:30 pmSSW 2.9 5.1----29.72- 48.9-----
2024-02-24 12:24 pm SW 4.1 4.1----29.72- 49.1-----
2024-02-24 12:18 pmSSW 2.9 4.1----29.72- 48.6-----
2024-02-24 12:12 pm SW 2.9 4.1----29.72- 49.1-----
2024-02-24 12:06 pm SW 2.9 4.1----29.72- 48.4-----
2024-02-24 12:00 pm SW 2.9 2.9----29.72+0.02 48.6-----
2024-02-24 11:54 am W 1.9 5.1----29.72- 48.2-----
2024-02-24 11:48 am W 5.1 6.0----29.72-------
2024-02-24 11:42 amWNW 2.9 5.1----29.72-------
2024-02-24 11:36 am NW 5.1 6.0----29.72-------
2024-02-24 11:30 am NW 6.0 7.0----29.72-------
2024-02-24 11:24 amWNW 7.0 8.0----29.72-------
2024-02-24 11:18 amWNW 7.0 8.0------ 47.5-----
2024-02-24 11:12 am W 7.0 8.0------ 47.1-----
2024-02-24 11:06 am W 6.0 7.0------ 47.1-----
2024-02-24 11:00 amWNW 6.0 7.0----29.72-------
2024-02-24 10:54 amWNW 6.0 7.0----29.72-------
2024-02-24 10:48 am W 6.0 7.0----29.72-------
2024-02-24 10:42 am W 6.0 8.0----29.72-------
2024-02-24 10:36 am W 6.0 7.0----29.72-------
2024-02-24 10:30 am W 6.0 7.0----29.72- 46.8-----
2024-02-24 10:24 amWNW 6.0 7.0----29.72- 46.6-----
2024-02-24 10:18 amWNW 6.0 8.0----29.71- 46.6-----
2024-02-24 10:12 am W 7.0 8.9----29.72- 46.4-----
2024-02-24 10:06 amWNW 7.0 8.9----29.71- 46.2-----
2024-02-24 10:00 amWNW 7.0 8.0------------
2024-02-24 09:54 amWNW 6.0 8.0------------
2024-02-24 09:48 amWNW 7.0 8.0----29.71-------
2024-02-24 09:42 amWNW 6.0 7.0----29.71-------
2024-02-24 09:36 am NW 4.1 7.0----29.71-------
2024-02-24 09:30 amWNW 5.1 8.0----29.70- 46.9-----
2024-02-24 09:24 am N 9.9 14.0----29.70- 48.7-----
2024-02-24 09:18 amNNW 8.0 12.0----29.70- 47.7-----
2024-02-24 09:12 am N 5.1 7.0----29.70- 47.1-----
2024-02-24 09:06 am NW 6.0 7.0----29.70- 46.2-----
2024-02-24 09:00 am NW 4.1 5.1----29.70+0.06 46.0-----
2024-02-24 08:54 am NW 2.9 4.1----29.70- 45.7-----
2024-02-24 08:48 amWNW 2.9 4.1------------
2024-02-24 08:42 amWNW 2.9 4.1------------
2024-02-24 08:36 am W 2.9 4.1------------
2024-02-24 08:30 am W 4.1 4.1----29.70-------
2024-02-24 08:24 am W 4.1 5.1----29.70-------
2024-02-24 08:18 am W 4.1 5.1----29.70-------
2024-02-24 08:12 amWNW 4.1 6.0----29.70-------
2024-02-24 08:06 amWNW 5.1 6.0----29.69-------
2024-02-24 08:00 am--------- 45.5-----
2024-02-24 07:54 am--------- 45.7-----
2024-02-24 07:48 am NW 5.1 5.1----29.68- 45.7-----
2024-02-24 07:42 am NW 5.1 5.1----29.67- 45.7-----
2024-02-24 07:36 am NW 5.1 6.0----29.67- 45.7-----
2024-02-24 07:30 am NW 5.1 6.0----29.67-------
2024-02-24 07:24 amWNW 5.1 6.0----29.67-------
2024-02-24 07:18 am NW 6.0 7.0----29.67-------
2024-02-24 07:12 am NW 7.0 8.0----29.67-------
2024-02-24 07:06 amWNW 6.0 7.0----29.66-------
2024-02-24 07:00 amWNW 7.0 7.0----29.66+0.06 45.0-----
2024-02-24 06:54 amWNW 6.0 7.0----29.66- 45.0-----
2024-02-24 06:48 am NW 6.0 8.0----29.65-------
2024-02-24 06:42 amWNW 6.0 8.0----29.65-------
2024-02-24 06:36 am W 7.0 8.0----29.65-------
2024-02-24 06:30 am W 6.0 7.0----29.65- 45.5-----
2024-02-24 06:24 amWNW 7.0 7.0----29.65- 45.5-----
2024-02-24 06:18 amWNW 6.0 7.0----29.65- 45.5-----
2024-02-24 06:12 amWNW 7.0 8.0----29.65- 45.5-----
2024-02-24 06:06 amWNW 6.0 6.0----29.64- 45.5-----
2024-02-24 06:00 am-------29.64-------
2024-02-24 05:54 am-------29.64-------
2024-02-24 05:48 am W 6.0 8.0----29.63- 44.6-----
2024-02-24 05:42 am W 6.0 8.0----29.63- 44.8-----
2024-02-24 05:36 am W 7.0 8.9----29.63- 44.6-----
2024-02-24 05:30 amWNW 8.0 8.0----29.63-------
2024-02-24 05:24 amWNW 8.0 8.9----29.62-------
2024-02-24 05:18 am-------29.62- 44.6-----
2024-02-24 05:12 am-------29.62- 44.6-----
2024-02-24 05:06 am-------29.62- 44.4-----
2024-02-24 05:00 am-------29.62+0.01------
2024-02-24 04:54 am-------29.61-------
2024-02-24 04:48 am W 6.0 7.0----29.61-------
2024-02-24 04:42 am W 5.1 6.0----29.61-------
2024-02-24 04:36 am W 5.1 6.0----29.60-------
2024-02-24 04:30 am W 5.1 7.0------------
2024-02-24 04:24 am W 7.0 8.0------------
2024-02-24 04:18 amWNW 5.1 6.0----29.60- 43.9-----
2024-02-24 04:12 am W 5.1 8.0----29.60- 43.7-----
2024-02-24 04:06 am W 7.0 7.0----29.59- 43.5-----
2024-02-24 04:00 am W 5.1 6.0----29.60+0.01 43.5-----
2024-02-24 03:54 am W 5.1 7.0----29.60- 43.7-----
2024-02-24 03:48 am W 7.0 8.0----29.60- 43.7-----
2024-02-24 03:42 am W 7.0 7.0----29.60- 43.9-----
2024-02-24 03:36 am W 5.1 6.0----29.59- 44.1-----
2024-02-24 03:30 am W 5.1 7.0----29.59-------
2024-02-24 03:24 amWSW 5.1 5.1----29.59-------
2024-02-24 03:18 am W 4.1 5.1----29.59-------
2024-02-24 03:12 am W 6.0 8.0----29.59-------
2024-02-24 03:06 am W 7.0 8.0----29.59-------
2024-02-24 03:00 am W 6.0 8.0------------
2024-02-24 02:54 am W 7.0 8.0------------
2024-02-24 02:48 am W 7.0 8.0----29.60-------
2024-02-24 02:42 amWSW 6.0 6.0----29.60-------
2024-02-24 02:36 am W 5.1 6.0----29.60-------
2024-02-24 02:30 am W 5.1 6.0----29.60-------
2024-02-24 02:24 am W 5.1 7.0----29.60-------
2024-02-24 02:18 am W 7.0 7.0----29.60- 44.6-----
2024-02-24 02:12 am W 5.1 7.0----29.60- 44.6-----
2024-02-24 02:06 am W 5.1 7.0----29.60- 44.8-----
2024-02-24 02:00 am-------29.60+0.04 44.8-----
2024-02-24 01:54 am-------29.60- 44.8-----
2024-02-24 01:48 am W 6.0 7.0----29.60-------
2024-02-24 01:42 am W 7.0 8.0----29.60-------
2024-02-24 01:36 am W 7.0 8.0----29.59-------
2024-02-24 01:30 am-------29.59- 45.3-----
2024-02-24 01:24 am-------29.59- 45.5-----
2024-02-24 01:18 amWNW 8.9 9.9----29.59-------
2024-02-24 01:12 amWNW 8.9 9.9----29.59-------
2024-02-24 01:06 amWNW 8.0 8.9----29.59-------
2024-02-24 01:00 amWNW 8.9 9.9----29.59+0.02 45.7-----
2024-02-24 12:54 amWNW 8.0 8.9----29.59- 45.5-----
2024-02-24 12:48 amWNW 8.0 8.9----29.59-------
2024-02-24 12:42 amWNW 7.0 8.0----29.58-------
2024-02-24 12:36 am W 7.0 8.0----29.58-------
2024-02-24 12:30 am W 7.0 8.0----29.58- 45.5-----
2024-02-24 12:24 am W 7.0 8.0----29.58- 45.5-----
2024-02-24 12:18 am W 7.0 7.0----29.58- 45.5-----
2024-02-24 12:12 amWNW 6.0 7.0----29.57- 45.5-----
2024-02-24 12:06 amWNW 5.1 6.0----29.57- 45.7-----
2024-02-24 12:00 amWNW 5.1 6.0----29.57+0.00------
2024-02-23 11:54 pm W 5.1 6.0----29.57-------
2024-02-23 11:48 pm W 6.0 6.0----29.57- 45.9-----
2024-02-23 11:42 pm W 6.0 6.0----29.57- 45.9-----
2024-02-23 11:36 pmWNW 6.0 7.0----29.57- 46.0-----
2024-02-23 11:30 pmWNW 6.0 8.0----29.57- 46.2-----
2024-02-23 11:24 pmWNW 7.0 8.0----29.57- 46.2-----
2024-02-23 11:18 pmWNW 6.0 7.0----29.57- 46.2-----
2024-02-23 11:12 pmWNW 7.0 8.0----29.57- 46.6-----
2024-02-23 11:06 pmWNW 7.0 8.0----29.57- 46.6-----
2024-02-23 11:00 pm NW 7.0 8.0----29.57+0.01 46.6-----
2024-02-23 10:54 pm NW 8.0 9.9----29.57- 46.8-----